Location: Palomar Mountain Lodge
(33.3110°N, 116.8495°W)
Time: 17:44:06
(UTC-08:00)

MetOp-A - Pass Details

Date: 14 June 2018
Orbit: 819 x 821 km, 98.6° (Epoch: 13 December)

Event Time Altitude Azimuth Distance (km) Brightness Sun altitude
Exits shadow 21:52:06 29° 176° (S) 1,471 5.0 -19.6°
Maximum altitude 21:54:56 76° 257° (WSW) 846 4.2 -20.0°
Drops below altitude 10° 22:00:18 10° 344° (NNW) 2,419 7.5 -20.7°
Sets 22:02:40 0° 346° (NNW) 3,356 8.4 -21.1°
